Simultaneous Nadir Overpasses (SNOs) Predictions

Prediction of SNOs between GOES-16 and METOP-C Satellite Orbit:

Table of predicted SNOs for the next 14.0 days since TLE Epoch: 8/8/2022
Index Date Time (GOES-16) GOES-16 Lat,Lon METOP-C Lat,Lon Distance(km) Time Diff (sec)
1 08/08/2022 02:30:23 0.01, -75.19 -0.03, -75.28 10.38 80
2 08/10/2022 14:31:16 -0.02, -75.21 -0.10, -74.86 39.95 80
3 08/12/2022 02:50:14 0.02, -75.20 -0.95, -79.44 483.70 80
4 08/13/2022 02:26:55 0.02, -75.21 0.18, -74.45 86.25 80
5 08/14/2022 14:45:47 -0.02, -75.24 0.80, -79.02 431.14 80
6 08/15/2022 14:27:47 -0.02, -75.25 -0.28, -74.02 139.50 80
7 08/17/2022 02:46:46 0.02, -75.26 -0.72, -78.62 382.35 80
8 08/18/2022 02:23:27 0.02, -75.28 0.42, -73.63 188.59 80
9 08/19/2022 14:42:18 -0.01, -75.32 0.62, -78.19 327.55 80
10 08/20/2022 14:21:37 -0.01, -75.33 -0.46, -73.19 243.81 80
